Hors Challenge

Le Trail Des Fantômes - La Roche-En-Ardenne (27.00 km)

dimanche 11 août 2019

Vous pouvez trouver Le classement original sur : https://my2.raceresult.com
 
LE TRAIL DES FANTÔMES - LA ROCHE-EN-ARDENNE
DISTANCE : 27.00 km
dimanche 11 août 2019
 
Place dos NOM Catégorie Pl/cat temps temps/km Vitesse
01:00:00              
1 1098 KRIJN VAN KOOLWIJK SH 1 2:09:17 04:47 12.53
2 1742 JONATHAN PUT SH 2 2:09:54 04:49 12.47
3 1555 BO HAKAM NILSSON SH 3 2:12:42 04:55 12.21
4 3600 KOEN WILSSENS SH 4 2:14:04 04:58 12.08
5 448 CHARLOTTE DEWILDE SD 1 2:18:22 05:07 11.71
6 1345 SENNE DE SCHOUWER SH 5 2:23:17 05:18 11.31
7 694 SEBASTIEN PONTUS SH 6 2:25:37 05:24 11.13
8 208 FREDERIC COOPMAN SH 7 2:28:52 05:31 10.88
9 412 SYBREN SANTERMANS SH 8 2:30:49 05:35 10.74
10 925 JARKO KORTEKAAS V1 1 2:34:27 05:43 10.49
11 522 ROY NIJKRAKE V2 1 2:34:57 05:44 10.45
12 1161 MANUEL VIGNERON SH 9 2:36:29 05:48 10.35
13 1685 PATRICK OTH SH 10 2:37:10 05:49 10.31
14 1137 TIM HEYMANS SH 11 2:38:34 05:52 10.22
15 1739 LIESELOT DE VEYLDER SD 2 2:38:36 05:52 10.21
16 1290 MAURICE DENIS V1 2 2:38:50 05:53 10.20
17 1074 FREDERIK DEFLOO V1 3 2:40:18 05:56 10.11
18 3412 FRANÇOIS PICHENEAUD SH 12 2:40:57 05:58 10.07
19 3407 ARNY LENGKEEK V1 4 2:43:30 06:03 9.91
20 1827 KEVIN VERBESSELT SH 13 2:44:44 06:06 9.83
21 1684 GEERT BAETENS V2 2 2:44:48 06:06 9.83
22 34 WOUTER STARREN SH 14 2:46:16 06:09 9.74
23 1225 JURGEN BRUIN SH 15 2:46:57 06:11 9.70
24 411 BRECHT TRUIJEN SH 16 2:48:25 06:14 9.62
25 1253 NICOLAS LELEU SH 17 2:49:51 06:17 9.54
26 832 BOB LAWENDE SH 18 2:50:26 06:19 9.51
27 609 NICO BOGAERT SH 19 2:51:04 06:20 9.47
28 1568 STIJN VAN VRECKEM V1 5 2:52:04 06:22 9.41
29 3391 STEVE CAILLER SH 20 2:52:15 06:23 9.40
30 3408 JACK ERNEST V2 3 2:52:34 06:23 9.39
31 774 DAVID DE VRIENDT SH 21 2:53:18 06:25 9.35
32 386 MATTHIJS HULSBOSCH V1 6 2:53:28 06:25 9.34
33 3400 JULIEN MALBURNY SH 22 2:53:39 06:26 9.33
34 1958 ANNE BENOIT SD 3 2:53:40 06:26 9.33
35 1466 RUUD DE VETTE V3 1 2:54:24 06:28 9.29
36 318 LIZA VAN DER HAAR SD 4 2:54:49 06:28 9.27
37 273 SENNE VANDEVENNE SH 23 2:55:01 06:29 9.26
38 857 NIELS PLESSERS SH 24 2:56:13 06:32 9.19
39 950 JOHN BRAHAM V1 7 2:56:19 06:32 9.19
40 384 ANNE VAN SCHIJNDEL SD 5 2:56:53 06:33 9.16
41 1652 MATHEW VERBRUGGEN SH 25 2:56:57 06:33 9.16
42 1670 STIJN VAN DEN EEDE SH 26 2:56:58 06:33 9.15
43 1940 BART VAN SLOTEN SH 27 2:58:18 06:36 9.09
44 1523 FRANK VAN DEN BERG V2 4 2:58:25 06:36 9.08
45 1175 YVES WALRAVENS V1 8 2:59:28 06:39 9.03
46 434 JAMIE MC CORMACK V2 5 2:59:28 06:39 9.03
47 247 ROLF SCHOOTMAN V1 9 2:59:55 06:40 9.00
48 1252 JENNIE OHLIN SD 6 3:02:11 06:45 8.89
49 709 ALEXANDER BEEREN V1 10 3:02:20 06:45 8.88
50 755 WIM TEEUW V2 6 3:02:21 06:45 8.88
51 977 YVES DUBUISSON SH 28 3:03:30 06:48 8.83
52 3436 JÉRÔME GAUVEIN SH 29 3:04:11 06:49 8.80
53 1037 ROEL NOUKENS SH 30 3:04:19 06:50 8.79
54 499 ERIK PAULISSEN SH 31 3:04:20 06:50 8.79
55 1757 JEAN-PHILIPPE THOLL SH 32 3:04:52 06:51 8.76
56 1256 ERIC GROSJEAN V2 7 3:05:08 06:51 8.75
57 378 RONALD SIMONIS V2 8 3:05:15 06:52 8.74
58 692 JOEP NACKEN SH 33 3:05:16 06:52 8.74
59 1666 EDWIN DE GROOT V2 9 3:05:57 06:53 8.71
60 1422 FÈLIX TORRES MIRALLES SH 34 3:06:39 06:55 8.68
61 322 ELINE COX SD 7 3:06:50 06:55 8.67
62 1181 SEBA VANDERMOLEN SH 35 3:07:05 06:56 8.66
63 1099 JONAS GOMMEREN SH 36 3:07:17 06:56 8.65
64 1097 KOBE BRAECKMAN SH 37 3:07:18 06:56 8.65
65 1096 KEVIN SCHELFHOUT SH 38 3:07:19 06:56 8.65
66 3340 PIETER DELVOU SH 39 3:07:44 06:57 8.63
67 1288 ERIC COSTA V2 10 3:07:55 06:58 8.62
68 1696 TOM VALKENBORGHS SH 40 3:08:28 06:59 8.60
69 3358 MIEKE DUPONT A1 1 3:08:56 07:00 8.57
70 316 BAS VLAMING SH 41 3:09:15 07:01 8.56
71 1805 MIEKE BUYENS A1 2 3:09:22 07:01 8.55
72 1355 THEO SMEETS V2 11 3:09:23 07:01 8.55
73 3603 FILIP HEYMANS V2 12 3:09:36 07:01 8.54
74 1092 HEATHER DOBBELAER SD 8 3:10:07 07:02 8.52
75 1846 MARTIJN DAMEN V1 11 3:10:18 07:03 8.51
76 1877 HANS BAILLIEUL SH 42 3:10:23 07:03 8.51
77 1143 STEF CLEYMAN SH 43 3:10:28 07:03 8.51
78 906 KIRSTEN BLIEKENDAAL SD 9 3:10:37 07:04 8.50
79 1383 YANNICK DELBROUCK V1 12 3:10:43 07:04 8.49
80 1226 NIVEDHAN SHETTY SH 44 3:10:49 07:04 8.49
81 509 ROY BEUNEN V1 13 3:11:41 07:06 8.45
82 502 PETER VAN ZON V3 2 3:11:54 07:06 8.44
83 1941 JURGEN VERSCHUEREN V1 14 3:12:07 07:07 8.43
84 1534 AURELIEN RÉVELART SH 45 3:12:38 07:08 8.41
85 1770 BAS VAN LEEUWEN SH 46 3:13:38 07:10 8.37
86 1819 SANDER WEUSTINK V1 15 3:13:38 07:10 8.37
87 1327 SERVAAS DE FRUYT SH 47 3:13:46 07:11 8.36
88 1326 JÜRGEN DE FRUYT V2 13 3:13:46 07:11 8.36
89 1913 RIANNE LINSSEN SD 10 3:13:46 07:11 8.36
90 1095 STEVE ROUSSEL V1 16 3:14:35 07:12 8.33
91 1689 GERRY WEBERS V1 17 3:15:13 07:14 8.30
92 1410 MARCEL STRUIJK V1 18 3:15:16 07:14 8.30
93 824 MARTIJN EBBEN V1 19 3:15:19 07:14 8.29
94 1080 JAN RIETSEMA V2 14 3:16:45 07:17 8.23
95 1277 ERIC BROUWER V1 20 3:18:21 07:21 8.17
96 3595 AXEL DEHON V1 21 3:19:29 07:23 8.12
97 1254 ALBERT GRIENS V1 22 3:19:32 07:23 8.12
98 1494 BART HARKEMA SH 48 3:19:50 07:24 8.11
99 901 PAUL DE JONGHE SH 49 3:19:52 07:24 8.11
100 381 EGON TRIKI V2 15 3:20:32 07:26 8.08
101 1307 DANIEL DE LEAU SH 50 3:20:39 07:26 8.07
102 1407 ROMAIN PERROTIN V1 23 3:20:53 07:26 8.06
103 1728 ONNO KEIJZERS SH 51 3:20:55 07:26 8.06
104 119 JORDY COSTERMANS SH 52 3:22:49 07:31 7.99
105 1609 LAURENT RENAULT V1 24 3:22:50 07:31 7.99
106 1372 DIRK SUYKENS V2 16 3:23:09 07:31 7.97
107 1608 NADJA JOUAN SD 11 3:24:09 07:34 7.94
108 3518 NORBERT DE GROOT SH 53 3:24:21 07:34 7.93
109 329 BAS ZWAAN SH 54 3:24:22 07:34 7.93
110 3470 NATHALIE DULIÈRE A2 1 3:24:44 07:35 7.91
111 3469 ELISEO MANFRON V2 17 3:24:45 07:35 7.91
112 1622 DORE PRIESTER SD 12 3:24:47 07:35 7.91
113 279 BJORN BOONE SH 55 3:24:48 07:35 7.91
114 1223 ANTHONY VAN DE BERG V2 18 3:24:48 07:35 7.91
115 1222 J.E.T. OEVER A1 3 3:24:48 07:35 7.91
116 847 BARBARA SAAT A1 4 3:26:08 07:38 7.86
117 3394 KEVIN SYMONS SH 56 3:26:09 07:38 7.86
118 3390 PETER DEWULF V2 19 3:26:10 07:38 7.86
119 1296 MARCO VAN TOLEDO V1 25 3:26:18 07:38 7.85
120 410 DAVE CORBEN V3 3 3:26:22 07:39 7.85
121 296 MICHEL HOTAT V2 20 3:26:53 07:40 7.83
122 1644 BERTRAND DELANGLEZ SH 57 3:27:08 07:40 7.82
123 848 HENK VOS V2 21 3:27:21 07:41 7.81
124 1772 MARKO VERKAART V1 26 3:27:24 07:41 7.81
125 469 NEELKE EBBEN A1 5 3:27:26 07:41 7.81
126 486 DIEDERICK BREYSEM SH 58 3:28:22 07:43 7.77
127 373 FRANKIE BONTINCKX V2 22 3:28:32 07:43 7.77
128 418 ANNEMARIE SMITS A1 6 3:29:08 07:45 7.75
129 1163 JOHN BOENDER V1 27 3:29:21 07:45 7.74
130 326 DASY WAGEMANS A1 7 3:29:48 07:46 7.72
131 327 WENDY VERVOORT SD 13 3:29:48 07:46 7.72
132 1865 TOM MAESSEN V2 23 3:31:02 07:49 7.68
133 1621 MATHIEU PEREIRA SH 59 3:31:13 07:49 7.67
134 1714 JAN MARIËN V1 28 3:31:14 07:49 7.67
135 215 BART PEELMAN V1 29 3:31:22 07:50 7.66
136 3381 SANDRA MORLAK SD 14 3:31:38 07:50 7.65
137 1594 ERIK BEAUJEAN V1 30 3:32:28 07:52 7.62
138 1471 KURT REYNDERS V1 31 3:33:41 07:55 7.58
139 1470 NATHALIE WUYTS A1 8 3:33:43 07:55 7.58
140 487 JASPER DECOSTER SH 60 3:33:50 07:55 7.58
141 259 MARK VAN VLEDDER SH 61 3:34:01 07:56 7.57
142 1631 ERIC BOEREBOOM V1 32 3:34:08 07:56 7.57
143 760 JOOST GROEN SH 62 3:34:52 07:57 7.54
144 761 SELINA VINK SD 15 3:34:52 07:57 7.54
145 130 PETER VAN DEN THILLART SH 63 3:36:08 08:00 7.50
146 62 RICHARD DE VROOME V1 33 3:36:10 08:00 7.49
147 1377 CASPER DE VRIES V1 34 3:36:11 08:00 7.49
148 328 ROBIN KUYPER SH 64 3:36:14 08:01 7.49
149 714 ROEL TIMMER SH 65 3:36:14 08:01 7.49
150 1054 MANDY WUNNINK A1 9 3:36:32 08:01 7.48
151 1826 SANDRINE LACKNER SD 16 3:36:52 08:02 7.47
152 803 JOHAN DETRAUX V1 35 3:36:57 08:02 7.47
153 3383 KJELL DE GEETER SH 66 3:37:03 08:02 7.46
154 1467 REINIER BOL SH 67 3:37:30 08:03 7.45
155 3382 CARLO MARX SH 68 3:37:39 08:04 7.44
156 843 ALAIN ROOMS V1 36 3:38:27 08:05 7.42
157 1287 THOMAS GLOUDEN V1 37 3:38:44 08:06 7.41
158 581 PIETERJAN MAES SH 69 3:39:57 08:09 7.37
159 1529 JEFF GROEBER V1 38 3:40:03 08:09 7.36
160 1174 TIM ROELANTS SH 70 3:40:23 08:10 7.35
161 1349 MATTHIEU HERR SH 71 3:40:48 08:11 7.34
162 1961 BJORN ASSELBERGHS SH 72 3:40:58 08:11 7.33
163 1690 ESTHER SWEERIS A2 2 3:41:07 08:11 7.33
164 380 ARNOLD BOENDER V2 24 3:41:44 08:13 7.31
165 1464 TINE VERFAILLIE A1 10 03:44:03 08:18 7.23
166 265 JAN VAN VEEN V3 4 03:45:00 08:20 7.20
167 1920 GUERIN GONTRAN V1 39 03:46:02 08:22 7.17
168 1919 PASCAL GROSSO V1 40 03:46:03 08:22 7.17
169 1257 HEYNE ESPINOZA A1 11 03:46:39 08:24 7.15
170 45 NETTY SCHOUTEN A2 3 03:46:41 08:24 7.15
171 842 HANS SCHEPERS V3 5 03:47:59 08:27 7.11
172 1289 NATHALIE HUBER SD 17 03:48:07 08:27 7.10
173 1517 LAETITIA DUSSIER A1 12 03:48:07 08:27 7.10
174 430 HANS DEN BOER V2 25 03:48:14 08:27 7.10
175 1124 PASCAL PEREIRA V2 26 03:48:41 08:28 7.08
176 377 JASPER SPAANS V1 41 03:49:46 08:31 7.05
177 951 KORNEEL BROOS SH 73 03:52:57 08:38 6.95
178 952 JANNETIEN VEIREMAN SD 18 03:52:58 08:38 6.95
179 3596 PATJE BLIECK V1 42 03:56:03 08:45 6.86
180 93 ERIK DE WILDE V2 27 03:58:12 08:49 6.80
181 295 INE STESSENS A1 13 03:59:06 08:51 6.78
182 1796 STEVEN DIEPENDAELE V1 43 03:59:28 08:52 6.77
183 1590 BREDA DE NEEL SH 74 03:59:28 08:52 6.77
184 496 ANNEMIE HUYGELEN A1 14 03:59:29 08:52 6.76
185 214 VALERIE EDIERS A1 15 03:59:43 08:53 6.76
186 1823 YURI SNIJDERS V1 44 03:59:44 08:53 6.76
187 3473 CHRISTOPHE DEJAEGHERE V1 45 03:59:56 08:53 6.75
188 1878 JORIS QUIX SH 75 04:03:54 09:02 6.64
189 1874 ROELAND LEMBRECHTS SH 76 04:03:55 09:02 6.64
190 1479 INE WUYTS SD 19 04:06:51 09:09 6.56
191 1207 IRITH DUDEN SD 20 04:06:52 09:09 6.56
192 101 GERT VAN DEN ABBEELE V1 46 04:07:45 09:11 6.54
193 679 KARIN LAEREMANS A1 16 04:07:47 09:11 6.54
194 1052 GINO DE GRAUWE V2 28 04:07:47 09:11 6.54
195 1943 JASPER VERWATERS SH 77 04:08:04 09:11 6.53
196 1942 LIANNE KLAVER SD 21 04:08:08 09:11 6.53
197 1220 LAURA VIVANCOS SD 22 04:10:31 09:17 6.47
198 1725 CHANTAL CIUCA A1 17 04:12:09 09:20 6.42
199 1224 MARION DEKKER XXX   04:12:19 09:21 6.42
200 451 MARTIJN SIDLER V1 47 04:12:39 09:21 6.41
201 300 MAURICE DELSING V1 48 04:12:46 09:22 6.41
202 299 SUSAN DELSING A1 18 04:12:47 09:22 6.41
203 1773 MARTIN FONTANA SH 78 04:13:24 09:23 6.39
204 1308 HEDDA MARIE DALE SD 23 04:13:40 09:24 6.39
205 948 VINCENT VERBRUGGHE V1 49 04:13:58 09:24 6.38
206 941 ISABELLE SAVARY A1 19 04:13:58 09:24 6.38
207 103 RIXT SMIT A1 20 04:16:48 09:31 6.31
208 477 SASKIA SCHURING-FABER A1 21 04:17:26 09:32 6.29
209 479 SYLVIA COENEN A2 4 04:17:27 09:32 6.29
210 876 LAURA GUNTHER SD 24 04:19:44 09:37 6.24
211 23 DIDIER SALEMBIER SH 79 04:20:46 09:39 6.21
212 1281 CAROLINE VERINGA A1 22 04:24:01 09:47 6.14
213 1323 ROB DESITTER V2 29 04:24:01 09:47 6.14
214 1304 DANIËLLA EVERS A1 23 04:24:03 09:47 6.14
215 1813 CINDY DEN HOLLANDER A1 24 04:24:04 09:47 6.13
216 1297 RAINIER ZWEEP V2 30 04:24:07 09:47 6.13
217 954 JEAN-PIERRE MAAS V1 50 04:24:08 09:47 6.13
218 354 DEBBY POULS A1 25 04:28:37 09:57 6.03
219 1601 KRISTEL VANRAES SD 25 04:29:39 09:59 6.01
220 1600 TIM DE GUCHTENAERE SH 80 04:29:40 09:59 6.01
221 266 MONIQUE L. VAN VEEN-KNUBBEN A2 5 04:35:40 10:13 5.88
222 675 BRIGITTE SNEL A1 26 04:41:38 10:26 5.75
223 673 REINT VAN DER VLIS V1 51 04:41:39 10:26 5.75